Regional Weather Roundup
Issued by NWS Cleveland, OH

Home | Current Version | Previous Version | Text Only | Print | Product List | Glossary Off
Versions: 1 2 3 4 5 6 7 8 9 10 11 12 13 14 15 16 17 18 19 20 21 22 23 24 25 26 27 28 29 30 31 32 33 34 35 36 37 38 39 40 41 42 43 44 45 46 47 48 49 50

000
ASUS41 KCLE 241402
RWRCLE
OHIO REGIONAL WEATHER ROUNDUP
NATIONAL WEATHER SERVICE CLEVELAND, OH
900 AM EST MON NOV 24 2014

NOTE: "FAIR" INDICATES FEW OR NO CLOUDS BELOW 12,000 FEET WITH NO
SIGNIFICANT WEATHER AND/OR OBSTRUCTIONS TO VISIBILITY.

OHZ001>008-015>018-024>027-034-035-043-044-241500-
   NORTHWEST OHIO

CITY           SKY/WX    TMP DP  RH WIND       PRES   REMARKS
DEFIANCE       LGT RAIN  57  53  86 S10       29.14F
FINDLAY        TSTM      60  54  80 S25G33    29.19F
TOLEDO EXPRESS CLOUDY    56  52  86 S12G22    29.15F
TOLEDO EXEC    CLOUDY    59  52  77 S24G32    29.18F
LIMA           TSTM      53  51  93 SW24G44   29.24R VSB 1
$$

OHZ009>014-019>023-028>033-038-089-241500-
   NORTHEAST OHIO

CITY           SKY/WX    TMP DP  RH WIND       PRES   REMARKS
CLE-HOPKINS    CLOUDY    60  52  74 S17G31    29.28F
CLE-LAKEFRONT  PTSUNNY   62  52  69 S20G35    29.25F
CUY CO. ARPT   PTSUNNY   61  52  72 S20G32    29.28S
LORAIN-ELYRIA  LGT RAIN  60  52  74 SW24G37   29.25F
ASHTABULA      CLOUDY    60  53  77 S17G29    29.32S
AKRON-CANTON   PTSUNNY   60  52  74 S25G39    29.33F
WOOSTER        CLOUDY   N/A N/A N/A S17G29    29.31F
MANSFIELD      PTSUNNY   59  53  80 S30G44    29.27F
YOUNGSTOWN     CLOUDY    60  53  77 S18G29    29.36S
$$

OHZ042-051>053-060>062-070>072-077>081-241500-
  SOUTHWEST OHIO

CITY           SKY/WX    TMP DP  RH WIND       PRES   REMARKS
CINC-COVINGTON CLOUDY    61  48  62 S29G40    29.32R
CINC-LUNKEN    CLOUDY    62  51  67 S36G45    29.33R
HAMILTON       CLOUDY    63  51  65 S20G38    29.29S
DAYTON         LGT RAIN  61  52  72 S24G39    29.26R
WRIGHT-PAT AFB NOT AVBL
DAYTON GENERAL CLOUDY    61  51  70 SW25G39   29.28R
WILMINGTON     CLOUDY    59  51  75 S24G47    29.32R
$$

OHZ036-037-039>041-045>050-054>059-063>069-073>076-082>088-241500-
  CENTRAL AND SOUTHEAST OHIO

CITY           SKY/WX    TMP DP  RH WIND       PRES   REMARKS
COLUMBUS       CLOUDY    60  52  74 S18G31    29.33S
OSU AIRPORT    PTSUNNY   61  52  72 S23G38    29.29F
BOLTON FIELD   PTSUNNY   61  54  77 S25G35    29.33S
RICKENBACK AFB NOT AVBL
NEWARK         MOSUNNY   61  52  72 S17G25    29.34F
MARION         PTSUNNY   59  53  80 S26G37    29.25F
LANCASTER      MOSUNNY   62  52  69 S21G29    29.36F
ZANESVILLE     MOSUNNY   61  51  70 S21G31    29.38F
NEW PHILLY     PTSUNNY   61  53  75 S12G22    29.38F
$$



USA.gov is the U.S. government's official web portal to all federal, state and local government web resources and services.